Weather History for KRZL - September, 2013

Change the Weather History Date:

Thursday, September 19, 2013

  Actual Average (KVPZ) Record (KVPZ)
Temperature  
Mean Temperature 75 °F 62 °F  
Max Temperature 86 °F 73 °F 91 °F (2000)
Min Temperature 64 °F 51 °F 39 °F (2012)
Degree Days  
Heating Degree Days 0 4  
Month to date heating degree days 43  
Since 1 July heating degree days 60  
Cooling Degree Days 10 1  
Month to date cooling degree days 54  
Year to date cooling degree days 690  
Growing Degree Days 25 (Base 50)    
Moisture  
Dew Point 67 °F    
Average Humidity 83    
Maximum Humidity 100    
Minimum Humidity 58    
Precipitation  
Precipitation 0.32 in 0.08 in 0.71 in (2001)
Month to date precipitation 2.06  
Year to date precipitation 27.60  
Sea Level Pressure  
Sea Level Pressure 29.96 in    
Wind  
Wind Speed 8 mph (SSE)    
Max Wind Speed 18 mph    
Max Gust Speed 25 mph    
Visibility 10 miles    
Events Rain , Thunderstorm    
T = Trace of Precipitation, MM = Missing Value Source: NWS Daily Summary

Daily Weather History Graph

Daily Weather History Graph

Search for Another Location

Airport or City:

Trip Planner

Search our weather history database for the weather conditions in past years. The results will help you decide how hot, cold, wet, or windy it might be!

Date:

Astronomy

Sep. 19, 2013 Rise Set
Actual Time 6:33 AM CDT 6:50 PM CDT
Civil Twilight 6:06 AM CDT 7:17 PM CDT
Nautical Twilight 5:33 AM CDT 7:50 PM CDT
Astronomical Twilight 5:00 AM CDT 8:23 PM CDT
Moon 6:48 PM CDT (9/19) 6:42 AM CDT (9/19)
Length of Visible Light 13h 11m
Length of Day
12h 17m
Full, 100% of the Moon is Illuminated
Sep 19
Full
Sep 26
Last Quarter
Oct 4
New
Oct 11
First Quarter
Oct 18
Full

Hourly Weather History & Observations

Time (CDT) Temp. Heat Index Dew Point Humidity Pressure Visibility Wind Dir Wind Speed Gust Speed Precip Events Conditions
12:15 AM 64.4 °F - 62.6 °F 94% 30.04 in 10.0 mi East 3.5 mph - N/A Thunderstorm Thunderstorm
12:35 AM 66.2 °F - 64.4 °F 94% 30.04 in 10.0 mi Calm Calm - N/A Thunderstorm Thunderstorm
12:55 AM 66.2 °F - 64.4 °F 94% 30.05 in 10.0 mi NE 6.9 mph - N/A Thunderstorm Overcast
1:15 AM 66.2 °F - 62.6 °F 88% 30.05 in 7.0 mi NE 9.2 mph - 0.02 in Rain , Thunderstorm Light Thunderstorms and Rain
1:35 AM 64.4 °F - 62.6 °F 94% 30.05 in 10.0 mi NNE 6.9 mph - 0.14 in Rain , Thunderstorm Rain
1:55 AM 64.4 °F - 62.6 °F 94% 30.03 in 10.0 mi SE 6.9 mph - 0.14 in Thunderstorm Overcast
2:15 AM 64.4 °F - 62.6 °F 94% 30.02 in 10.0 mi SE 4.6 mph - 0.01 in Rain Light Rain
2:35 AM 64.4 °F - 62.6 °F 94% 30.02 in 10.0 mi South 4.6 mph - 0.01 in Thunderstorm Overcast
2:55 AM 64.4 °F - 62.6 °F 94% 30.02 in 10.0 mi SSE 4.6 mph - 0.01 in   Overcast
3:15 AM 64.4 °F - 62.6 °F 94% 30.02 in 10.0 mi South 4.6 mph - N/A   Mostly Cloudy
3:35 AM 64.4 °F - 62.6 °F 94% 30.00 in 10.0 mi SSE 4.6 mph - N/A   Overcast
3:55 AM 64.4 °F - 62.6 °F 94% 30.01 in 10.0 mi SW 4.6 mph - N/A   Mostly Cloudy
4:15 AM 64.4 °F - 62.6 °F 94% 30.00 in 10.0 mi SE 3.5 mph - N/A   Mostly Cloudy
4:35 AM 64.4 °F - 62.6 °F 94% 30.00 in 10.0 mi SE 3.5 mph - N/A   Scattered Clouds
4:55 AM 64.4 °F - 62.6 °F 94% 30.01 in 10.0 mi SSE 4.6 mph - N/A   Mostly Cloudy
5:15 AM 64.4 °F - 62.6 °F 94% 30.00 in 10.0 mi SSE 5.8 mph - N/A Thunderstorm Mostly Cloudy
5:35 AM 64.4 °F - 62.6 °F 94% 30.02 in 10.0 mi SSE 5.8 mph - N/A   Overcast
5:55 AM 64.4 °F - 62.6 °F 94% 30.03 in 10.0 mi South 5.8 mph - N/A Rain Light Rain
6:15 AM 64.4 °F - 64.4 °F 100% 30.02 in 5.0 mi SSE 10.4 mph - 0.14 in Rain Light Rain
6:35 AM 66.2 °F - 64.4 °F 94% 30.02 in 10.0 mi SSE 9.2 mph - 0.14 in Thunderstorm Thunderstorm
6:55 AM 66.2 °F - 64.4 °F 94% 30.01 in 10.0 mi SSE 10.4 mph - 0.14 in   Mostly Cloudy
7:15 AM 68.0 °F - 64.4 °F 88% 30.01 in 10.0 mi SSE 9.2 mph - N/A   Scattered Clouds
7:35 AM 68.0 °F - 66.2 °F 94% 30.01 in 7.0 mi SSE 10.4 mph - N/A   Overcast
7:55 AM 68.0 °F - 66.2 °F 94% 30.01 in 7.0 mi SSE 9.2 mph - N/A   Mostly Cloudy
8:15 AM 68.0 °F - 66.2 °F 94% 30.01 in 10.0 mi SSE 8.1 mph - N/A   Scattered Clouds
8:35 AM 69.8 °F - 66.2 °F 88% 30.01 in 10.0 mi SSE 9.2 mph - N/A   Mostly Cloudy
8:55 AM 69.8 °F - 68.0 °F 94% 30.00 in 10.0 mi SSE 9.2 mph - N/A   Scattered Clouds
9:15 AM 71.6 °F - 68.0 °F 88% 30.00 in 10.0 mi South 9.2 mph - N/A   Scattered Clouds
9:35 AM 73.4 °F - 68.0 °F 83% 30.00 in 10.0 mi South 11.5 mph 16.1 mph N/A   Scattered Clouds
9:55 AM 73.4 °F - 68.0 °F 83% 30.00 in 10.0 mi South 9.2 mph - N/A   Clear
10:15 AM 75.2 °F - 69.8 °F 83% 30.00 in 10.0 mi South 11.5 mph - N/A   Clear
10:35 AM 77.0 °F - 69.8 °F 78% 29.99 in 10.0 mi South 15.0 mph 21.9 mph N/A   Clear
10:55 AM 78.8 °F - 69.8 °F 74% 29.99 in 10.0 mi SSW 18.4 mph 25.3 mph N/A   Clear
11:15 AM 80.6 °F 83.9 °F 69.8 °F 70% 29.99 in 10.0 mi SSW 11.5 mph - N/A   Clear
11:35 AM 80.6 °F 83.9 °F 69.8 °F 70% 29.98 in 10.0 mi SSW 13.8 mph 20.7 mph N/A   Clear
11:55 AM 80.6 °F 83.9 °F 69.8 °F 70% 29.98 in 10.0 mi South 13.8 mph 18.4 mph N/A   Clear
12:15 PM 80.6 °F 83.9 °F 69.8 °F 70% 29.97 in 10.0 mi South 16.1 mph 23.0 mph N/A   Scattered Clouds
12:35 PM 82.4 °F 86.3 °F 69.8 °F 66% 29.97 in 10.0 mi SSW 15.0 mph 18.4 mph N/A Thunderstorm Scattered Clouds
12:55 PM 82.4 °F 86.3 °F 69.8 °F 66% 29.97 in 10.0 mi South 12.7 mph 18.4 mph N/A   Scattered Clouds
1:15 PM 82.4 °F 86.3 °F 69.8 °F 66% 29.96 in 10.0 mi SSW 10.4 mph 16.1 mph N/A   Mostly Cloudy
1:35 PM 84.2 °F 88.4 °F 69.8 °F 62% 29.96 in 10.0 mi South 11.5 mph 17.3 mph N/A   Mostly Cloudy
1:55 PM 82.4 °F 86.3 °F 69.8 °F 66% 29.96 in 10.0 mi South 9.2 mph - N/A   Mostly Cloudy
2:15 PM 86.0 °F 90.4 °F 69.8 °F 58% 29.95 in 10.0 mi South 9.2 mph - N/A   Scattered Clouds
2:35 PM 84.2 °F 88.4 °F 69.8 °F 62% 29.94 in 10.0 mi South 9.2 mph - N/A   Scattered Clouds
2:55 PM 86.0 °F 90.4 °F 69.8 °F 58% 29.93 in 10.0 mi South 10.4 mph - N/A   Scattered Clouds
3:15 PM 82.4 °F 86.3 °F 69.8 °F 66% 29.93 in 10.0 mi SSE 13.8 mph 20.7 mph N/A Thunderstorm Scattered Clouds
3:35 PM 80.6 °F 83.9 °F 69.8 °F 70% 29.92 in 10.0 mi SSW 11.5 mph 25.3 mph N/A Rain , Thunderstorm Light Thunderstorms and Rain
3:55 PM 77.0 °F - 71.6 °F 83% 29.91 in 7.0 mi ESE 6.9 mph - N/A Rain , Thunderstorm Light Thunderstorms and Rain
4:15 PM 75.2 °F - 71.6 °F 89% 29.94 in 5.0 mi South 6.9 mph - 0.01 in Rain , Thunderstorm Thunderstorms and Rain
4:35 PM 75.2 °F - 69.8 °F 83% 29.92 in 5.0 mi SSE 9.2 mph - 0.03 in Rain , Thunderstorm Light Thunderstorms and Rain
4:55 PM 73.4 °F - 68.0 °F 83% 29.92 in 10.0 mi SE 9.2 mph - 0.03 in Rain , Thunderstorm Light Thunderstorms and Rain
5:15 PM 71.6 °F - 64.4 °F 78% 29.91 in 10.0 mi SE 6.9 mph - N/A Thunderstorm Mostly Cloudy
5:35 PM 71.6 °F - 64.4 °F 78% 29.90 in 10.0 mi SSE 8.1 mph - N/A Thunderstorm Scattered Clouds
5:55 PM 73.4 °F - 64.4 °F 73% 29.88 in 10.0 mi South 12.7 mph - N/A Thunderstorm Clear
6:15 PM 71.6 °F - 64.4 °F 78% 29.87 in 10.0 mi SSE 10.4 mph - N/A   Clear
6:35 PM 73.4 °F - 66.2 °F 78% 29.87 in 10.0 mi SSE 8.1 mph - N/A   Clear
6:55 PM 73.4 °F - 68.0 °F 83% 29.87 in 10.0 mi SSE 9.2 mph - N/A   Clear
7:15 PM 73.4 °F - 66.2 °F 78% 29.88 in 10.0 mi SSE 6.9 mph - N/A   Clear
7:35 PM 73.4 °F - 68.0 °F 83% 29.89 in 10.0 mi SSE 8.1 mph - N/A   Clear
7:55 PM 73.4 °F - 68.0 °F 83% 29.89 in 10.0 mi SSE 8.1 mph - N/A   Clear
8:15 PM 73.4 °F - 69.8 °F 88% 29.90 in 10.0 mi South 5.8 mph - N/A   Clear
8:35 PM 75.2 °F - 69.8 °F 83% 29.90 in 10.0 mi SSE 9.2 mph - N/A   Clear
8:55 PM 75.2 °F - 69.8 °F 83% 29.90 in 10.0 mi South 10.4 mph - N/A   Clear
9:15 PM 73.4 °F - 69.8 °F 88% 29.89 in 10.0 mi South 10.4 mph - N/A   Clear
9:35 PM 73.4 °F - 69.8 °F 88% 29.88 in 10.0 mi South 10.4 mph - N/A   Clear
9:55 PM 75.2 °F - 69.8 °F 83% 29.87 in 10.0 mi South 10.4 mph 18.4 mph N/A   Clear
10:15 PM 75.2 °F - 69.8 °F 83% 29.88 in 10.0 mi South 13.8 mph 17.3 mph N/A   Clear
10:35 PM 75.2 °F - 69.8 °F 83% 29.88 in 10.0 mi South 12.7 mph - N/A   Clear
10:55 PM 75.2 °F - 69.8 °F 83% 29.89 in 10.0 mi South 12.7 mph - N/A   Clear
11:15 PM 75.2 °F - 69.8 °F 83% 29.88 in 10.0 mi South 11.5 mph 18.4 mph N/A   Clear
11:35 PM 75.2 °F - 69.8 °F 83% 29.88 in 10.0 mi SSW 15.0 mph 18.4 mph N/A   Clear
11:55 PM 77.0 °F - 69.8 °F 78% 29.89 in 10.0 mi SSW 15.0 mph 18.4 mph N/A   Clear